Regional Weather Roundup
Issued by NWS

Home | Current Version | Previous Version | Graphics & Text | Print | Product List | Glossary On
Versions: 1 2 3 4 5 6 7 8 9 10 11 12 13 14 15 16 17 18 19 20 21 22 23 24 25 26 27 28 29 30 31 32 33 34 35 36 37 38 39 40 41 42 43 44 45 46 47 48 49 50
000
ASUS43 KMKX 220121
RWRWI

WISCONSIN REGIONAL WEATHER ROUNDUP
NATIONAL WEATHER SERVICE MILWAUKEE/SULLIVAN WI
800 PM CDT SUN SEP 21 2014

NOTE: "FAIR" INDICATES FEW OR NO CLOUDS BELOW 12,000 FEET WITH NO
SIGNIFICANT WEATHER AND/OR OBSTRUCTIONS TO VISIBILITY.

WIZ001-002-006>008-014>016-023>028-220200-
NORTHWEST WISCONSIN

CITY           SKY/WX    TMP DP  RH WIND       PRES   REMARKS
SUPERIOR ARPT  CLEAR     53  46  76 NW6       30.16R
ASHLAND        CLEAR     45  44  97 CALM      30.16R
HAYWARD        CLEAR     50  45  83 CALM      30.17R
SIREN          CLEAR     52  48  86 CALM      30.18R
RICE LAKE      CLEAR     54  44  68 NW3       30.18S
LADYSMITH      CLEAR     49  45  84 CALM      30.18R
EAU CLAIRE     CLEAR     54  45  71 CALM      30.15R
MENOMONIE      CLEAR     56  46  66 W5        30.17R
NEW RICHMOND   CLEAR     53  46  76 W3        30.19R
OSCEOLA        CLEAR     56  47  71 W3        30.21R
$$

WIZ003>005-009-010-017-018-220200-
NORTH CENTRAL WISCONSIN

CITY           SKY/WX    TMP DP  RH WIND       PRES   REMARKS
WOODRUFF       CLEAR     44  40  87 CALM      30.15R
RHINELANDER    CLEAR     42  37  82 CALM      30.15S
EAGLE RIVER    CLEAR     42  37  80 CALM      30.13S
LAND O LAKES   CLEAR     39  37  93 CALM      30.14S
PHILLIPS       CLEAR     42  40  95 CALM      30.16R
TOMAHAWK       CLEAR     40  37  92 CALM      30.16S
MEDFORD        CLEAR     46  39  79 N3        30.16R
MERRILL        CLEAR     45  38  78 CALM      30.15S
$$

WIZ029-030-035-036-043>047-220200-
CENTRAL WISCONSIN

CITY           SKY/WX    TMP DP  RH WIND       PRES   REMARKS
WAUSAU         CLEAR     50  38  63 NW7       30.14R
MOSINEE        CLEAR     50  43  76 N9        30.16R
MARSHFIELD     CLEAR     52  42  69 N8        30.15R
STEVENS POINT  CLEAR     49  40  73 N3        30.16R
WAUPACA        CLEAR     52  42  68 NW6       30.13R
WAUTOMA        CLEAR     54  43  66 NW8       30.14R
WISC RAPIDS    CLEAR     50  44  80 NW5       30.16R
CAMP DOUGLAS   CLEAR     49  46  89 N5        30.15R
$$

WIZ011>013-019>022-031-037>040-048>050-220200-
NORTHEAST WISCONSIN

CITY           SKY/WX    TMP DP  RH WIND       PRES   REMARKS
ANTIGO         CLEAR     44  39  82 N5        30.15R
STURGEON BAY   CLEAR     48  37  66 N14G20    30.13R
GREEN BAY      CLEAR     49  42  77 N7        30.12R
MANITOWOC      CLEAR     49  43  80 N3        30.11R
APPLETON       PTCLDY    50  39  66 N10       30.12R
CLINTONVILLE   CLEAR     48  41  76 N3        30.14R
OSHKOSH        PTCLDY    51  43  74 N8        30.12R
$$

WIZ032>034-041-042-053>061-220200-
SOUTHWEST WISCONSIN

CITY           SKY/WX    TMP DP  RH WIND       PRES   REMARKS
LA CROSSE      CLEAR     56  46  69 N6        30.15R
SPARTA         CLEAR     50  45  83 CALM      30.16R
VIROQUA        FAIR      53  45  74 N5        30.16R
BOSCOBEL       CLEAR     55  48  77 CALM      30.14R
PRAIRIE DU CHI CLEAR     55  48  77 CALM      30.14R
PLATTEVILLE    FAIR      55  47  74 NW6       30.15R
$$

WIZ056-057-062-063-064-067-068-220200-
SOUTH CENTRAL WISCONSIN

CITY           SKY/WX    TMP DP  RH WIND       PRES   REMARKS
BARABOO/DELLS  CLEAR     55  43  64 N5        30.13R
LONE ROCK      CLEAR     61  44  53 NW6       30.13R
WATERTOWN      PTCLDY    53  45  73 CALM      30.11R
MADISON        PTCLDY    55  45  68 NW5       30.11R
MIDDLETON      FAIR      55  44  67 CALM      30.13R
MONROE         CLEAR     55  45  67 NW7       30.12R
JANESVILLE     CLEAR     57  43  58 N6        30.10R
$$

WIZ051-052-058>065-066-070>072-220200-
SOUTHEAST WISCONSIN

CITY           SKY/WX    TMP DP  RH WIND       PRES   REMARKS
MILWAUKEE      PTCLDY    53  41  63 N7        30.10R
WAUKESHA       NOT AVBL
MILWAUKEE/TIMM CLEAR     52  43  71 N3        30.11R
RACINE         CLEAR     52  43  71 NW5       30.11R
BURLINGTON     CLEAR     47  43  87 CALM      30.11R
KENOSHA        CLEAR     51  44  77 N5        30.11R
FOND DU LAC    PTCLDY    51  43  74 N5        30.11R
SHEBOYGAN      CLEAR     48  42  80 N5        30.10R
WEST BEND      PTCLDY    50  41  71 N3        30.11R
JUNEAU         PTCLDY    51  44  77 N6        30.12R
$$

LSZ147-162-220200-
LAKE SUPERIOR

STATION/POSITION TIME  TEMP    WIND        PRES    WAVE
                       AIR SEA DIR/SP/G            HT/PER
                 (UTC) (F)     (DEG/KT/KT) (MB)    (FT/S)
W MID LAKE BUOY  0050   51 48  240/ 10/ 12 1020.5R   2/ 6
DEVILS ISLAND    0100   53     260/  8/  9 1021.4R
PORT WING        0000   59      CALM  /  2 1020.7
SAXON HARBOR     0000   50      CALM  /  3 1021.0
$$

LMZ867-665-643>646-220200-
LAKE MICHIGAN

STATION/POSITION TIME  TEMP    WIND        PRES    WAVE
                       AIR SEA DIR/SP/G            HT/PER
                 (UTC) (F)     (DEG/KT/KT) (MB)    (FT/S)
N MID LAKE BUOY  0050   48 57  340/ 25/ 29 1018.5R   5/ 6
NORTHPORT PIER   0025   49     330/ 27     1019.3R
KEWAUNEE LAKESHO 0100   49     360/  6/  9 1018.6R
SHEBOYGAN LAKESH 0100   53 51  350/  8/  9 1019.9R
PORT WASHINGTON  0000   56     340/  3/  6 1019.0R
ATWATER BUOY     0100   56     340/ 10/ 14 1020.1R
MILWAUKEE LAKESH 0100   55     340/  7/  9   N/A
S MID LAKE BUOY  0050   56 62  350/ 17/ 21 1018.3R   8/ 7
KENOSHA   LAKESH 0100   55     340/  7/  9 1019.0R
$$

TC  - TEMPERATURE IN CELSIUS
VSB - VISIBILITY IN STATUTE MILES
WCI - WIND CHILL INDEX
HX  - HEAT INDEX




USA.gov is the U.S. government's official web portal to all federal, state and local government web resources and services.